• în România
  • Lista ţărilor
  • Pe 7 zile
  • Temperatura apei
  • Hartă satelitară
  • Meteo pe hartă
  • Widget-uri
  • user-avatar
    Intrare

    Meteo pe oră la Ganja

    Astăzi, 28 Mai, Duminică

    Timp Temperatura Precipitaţii Vânt Presiune Umiditate
    00:00 +18°C° 0,1 mm 1 m/s 722 mmHg 74%
    01:00 +16°C° 0 mm 1 m/s 723 mmHg 73%
    02:00 +16°C° 0 mm 2 m/s 723 mmHg 72%
    03:00 +16°C° 0 mm 3 m/s 723 mmHg 69%
    04:00 +17°C° 0 mm 3 m/s 723 mmHg 68%
    05:00 +17°C° 0 mm 3 m/s 723 mmHg 67%
    06:00 +18°C° 0 mm 2 m/s 723 mmHg 65%
    07:00 +20°C° 0 mm 2 m/s 723 mmHg 58%
    08:00 +23°C° 0 mm 2 m/s 723 mmHg 51%
    09:00 +25°C° 0 mm 2 m/s 723 mmHg 44%
    10:00 +26°C° 0 mm 2 m/s 723 mmHg 42%
    11:00 +27°C° 0 mm 2 m/s 723 mmHg 39%
    12:00 +28°C° 0 mm 2 m/s 723 mmHg 37%
    13:00 +28°C° 0,2 mm 2 m/s 723 mmHg 37%
    14:00 +29°C° 0,2 mm 2 m/s 722 mmHg 36%
    15:00 +29°C° 0,2 mm 2 m/s 722 mmHg 36%
    16:00 +28°C° 0,3 mm 2 m/s 723 mmHg 40%
    17:00 +27°C° 0,3 mm 2 m/s 723 mmHg 44%
    18:00 +26°C° 0,3 mm 2 m/s 723 mmHg 48%
    19:00 +24°C° 0,3 mm 2 m/s 724 mmHg 53%
    20:00 +21°C° 0,3 mm 1 m/s 724 mmHg 58%
    21:00 +19°C° 0,3 mm 1 m/s 725 mmHg 63%
    22:00 +18°C° 0 mm 1 m/s 725 mmHg 66%
    23:00 +18°C° 0 mm 1 m/s 726 mmHg 70%

    Mâine, 29 Mai, Luni

    Timp Temperatura Precipitaţii Vânt Presiune Umiditate
    00:00 +16°C° 0 mm 1 m/s 726 mmHg 73%
    01:00 +16°C° 0 mm 1 m/s 726 mmHg 74%
    02:00 +15°C° 0 mm 1 m/s 726 mmHg 75%
    03:00 +15°C° 0 mm 1 m/s 726 mmHg 76%
    04:00 +16°C° 0 mm 1 m/s 727 mmHg 72%
    05:00 +18°C° 0 mm 1 m/s 727 mmHg 69%
    06:00 +19°C° 0 mm 1 m/s 727 mmHg 65%
    07:00 +21°C° 0 mm 1 m/s 727 mmHg 59%
    08:00 +23°C° 0 mm 1 m/s 727 mmHg 53%
    09:00 +24°C° 0 mm 1 m/s 728 mmHg 47%
    10:00 +25°C° 0 mm 2 m/s 727 mmHg 46%
    11:00 +26°C° 0 mm 2 m/s 727 mmHg 44%
    12:00 +27°C° 0 mm 3 m/s 727 mmHg 43%
    13:00 +28°C° 0,1 mm 3 m/s 727 mmHg 44%
    14:00 +28°C° 0,1 mm 4 m/s 727 mmHg 45%
    15:00 +28°C° 0,1 mm 4 m/s 726 mmHg 46%
    16:00 +28°C° 0,2 mm 4 m/s 726 mmHg 50%
    17:00 +27°C° 0,2 mm 4 m/s 727 mmHg 53%
    18:00 +26°C° 0,2 mm 4 m/s 727 mmHg 57%
    19:00 +23°C° 0,2 mm 5 m/s 727 mmHg 60%
    20:00 +21°C° 0,2 mm 5 m/s 728 mmHg 64%
    21:00 +20°C° 0,2 mm 5 m/s 728 mmHg 67%
    22:00 +19°C° 0 mm 4 m/s 728 mmHg 69%
    23:00 +18°C° 0 mm 4 m/s 728 mmHg 71%

    Poimâine, 30 Mai, Marţi

    Timp Temperatura Precipitaţii Vânt Presiune Umiditate
    00:00 +18°C° 0 mm 4 m/s 728 mmHg 73%
    01:00 +17°C° 0 mm 3 m/s 728 mmHg 75%
    02:00 +16°C° 0 mm 2 m/s 727 mmHg 78%
    03:00 +15°C° 0 mm 1 m/s 727 mmHg 80%
    04:00 +16°C° 0 mm 1 m/s 727 mmHg 78%
    05:00 +18°C° 0 mm 1 m/s 727 mmHg 76%
    06:00 +19°C° 0 mm 1 m/s 727 mmHg 74%
    07:00 +20°C° 0 mm 1 m/s 727 mmHg 68%
    08:00 +22°C° 0 mm 1 m/s 727 mmHg 61%
    09:00 +24°C° 0 mm 1 m/s 726 mmHg 55%
    10:00 +25°C° 0 mm 1 m/s 726 mmHg 51%
    11:00 +26°C° 0 mm 1 m/s 725 mmHg 47%
    12:00 +28°C° 0 mm 1 m/s 725 mmHg 43%
    13:00 +28°C° 0 mm 1 m/s 725 mmHg 42%
    14:00 +29°C° 0 mm 1 m/s 724 mmHg 40%
    15:00 +30°C° 0 mm 2 m/s 724 mmHg 39%
    16:00 +29°C° 0 mm 1 m/s 724 mmHg 42%
    17:00 +29°C° 0 mm 1 m/s 724 mmHg 44%
    18:00 +28°C° 0 mm 1 m/s 724 mmHg 47%
    19:00 +26°C° 0 mm 1 m/s 724 mmHg 52%
    20:00 +23°C° 0 mm 1 m/s 724 mmHg 57%
    21:00 +21°C° 0 mm 1 m/s 724 mmHg 61%
    22:00 +21°C° 0 mm 1 m/s 724 mmHg 61%
    23:00 +21°C° 0 mm 1 m/s 724 mmHg 60%

    31 Mai, Miercuri

    Timp Temperatura Precipitaţii Vânt Presiune Umiditate
    00:00 +19°C° 0 mm 2 m/s 724 mmHg 60%
    01:00 +19°C° 0 mm 2 m/s 724 mmHg 60%
    02:00 +19°C° 0 mm 2 m/s 724 mmHg 60%
    03:00 +18°C° 0 mm 2 m/s 724 mmHg 59%
    04:00 +19°C° 0 mm 2 m/s 724 mmHg 57%
    05:00 +20°C° 0 mm 2 m/s 724 mmHg 54%
    06:00 +21°C° 0 mm 2 m/s 725 mmHg 52%
    07:00 +24°C° 0 mm 2 m/s 724 mmHg 46%
    08:00 +26°C° 0 mm 1 m/s 724 mmHg 40%
    09:00 +28°C° 0 mm 1 m/s 724 mmHg 35%
    10:00 +29°C° 0 mm 2 m/s 724 mmHg 33%
    11:00 +30°C° 0 mm 2 m/s 723 mmHg 31%
    12:00 +31°C° 0 mm 2 m/s 723 mmHg 30%
    13:00 +31°C° 0,2 mm 2 m/s 723 mmHg 31%
    14:00 +33°C° 0,2 mm 3 m/s 722 mmHg 32%
    15:00 +33°C° 0,2 mm 3 m/s 722 mmHg 34%
    16:00 +31°C° 0,5 mm 3 m/s 722 mmHg 38%
    17:00 +30°C° 0,5 mm 3 m/s 722 mmHg 42%
    18:00 +28°C° 0,5 mm 2 m/s 721 mmHg 46%
    19:00 +26°C° 0,2 mm 3 m/s 722 mmHg 50%
    20:00 +25°C° 0,2 mm 3 m/s 722 mmHg 54%
    21:00 +22°C° 0,2 mm 3 m/s 722 mmHg 58%
    22:00 +21°C° 1 mm 3 m/s 722 mmHg 62%
    23:00 +20°C° 1 mm 2 m/s 722 mmHg 67%

    1 Iunie, Joi

    Timp Temperatura Precipitaţii Vânt Presiune Umiditate
    00:00 +19°C° 1 mm 2 m/s 722 mmHg 72%
    01:00 +18°C° 0,6 mm 2 m/s 722 mmHg 74%
    02:00 +18°C° 0,6 mm 2 m/s 722 mmHg 76%
    03:00 +17°C° 0,6 mm 2 m/s 722 mmHg 79%
    04:00 +18°C° 0,2 mm 2 m/s 722 mmHg 77%
    05:00 +19°C° 0,2 mm 2 m/s 722 mmHg 75%
    06:00 +19°C° 0,2 mm 2 m/s 722 mmHg 73%
    07:00 +21°C° 0 mm 3 m/s 722 mmHg 66%
    08:00 +22°C° 0 mm 3 m/s 722 mmHg 58%
    09:00 +25°C° 0 mm 3 m/s 722 mmHg 51%
    10:00 +26°C° 0,1 mm 3 m/s 721 mmHg 49%
    11:00 +27°C° 0,1 mm 3 m/s 721 mmHg 46%
    12:00 +28°C° 0,1 mm 2 m/s 720 mmHg 44%
    13:00 +28°C° 0,5 mm 2 m/s 720 mmHg 44%
    14:00 +29°C° 0,5 mm 2 m/s 720 mmHg 43%
    15:00 +29°C° 0,5 mm 2 m/s 720 mmHg 43%
    16:00 +28°C° 0,5 mm 2 m/s 720 mmHg 45%
    17:00 +28°C° 0,5 mm 2 m/s 720 mmHg 47%
    18:00 +27°C° 0,5 mm 2 m/s 720 mmHg 50%
    19:00 +25°C° 0,3 mm 2 m/s 721 mmHg 52%
    20:00 +23°C° 0,3 mm 2 m/s 721 mmHg 55%
    21:00 +21°C° 0,3 mm 1 m/s 721 mmHg 58%
    22:00 +20°C° 0,2 mm 1 m/s 721 mmHg 60%
    23:00 +20°C° 0,2 mm 1 m/s 721 mmHg 62%

    2 Iunie, Vineri

    Timp Temperatura Precipitaţii Vânt Presiune Umiditate
    00:00 +19°C° 0,2 mm 1 m/s 721 mmHg 65%
    01:00 +18°C° 0,1 mm 1 m/s 721 mmHg 67%
    02:00 +17°C° 0,1 mm 2 m/s 721 mmHg 69%
    03:00 +17°C° 0,1 mm 2 m/s 721 mmHg 71%
    04:00 +18°C° 0 mm 2 m/s 722 mmHg 70%
    05:00 +18°C° 0 mm 2 m/s 722 mmHg 69%
    06:00 +19°C° 0 mm 2 m/s 722 mmHg 69%
    07:00 +21°C° 0 mm 3 m/s 722 mmHg 62%
    08:00 +22°C° 0 mm 3 m/s 722 mmHg 56%
    09:00 +25°C° 0 mm 3 m/s 722 mmHg 50%
    10:00 +26°C° 0,1 mm 3 m/s 722 mmHg 48%
    11:00 +27°C° 0,1 mm 3 m/s 722 mmHg 46%
    12:00 +28°C° 0,1 mm 2 m/s 721 mmHg 44%
    13:00 +28°C° 0,5 mm 2 m/s 721 mmHg 43%
    14:00 +28°C° 0,5 mm 2 m/s 721 mmHg 42%
    15:00 +29°C° 0,5 mm 1 m/s 721 mmHg 41%
    16:00 +28°C° 0,5 mm 1 m/s 721 mmHg 43%
    17:00 +28°C° 0,5 mm 1 m/s 721 mmHg 46%
    18:00 +27°C° 0,5 mm 1 m/s 721 mmHg 48%
    19:00 +25°C° 0,2 mm 1 m/s 722 mmHg 51%
    20:00 +23°C° 0,2 mm 1 m/s 722 mmHg 54%
    21:00 +20°C° 0,2 mm 2 m/s 722 mmHg 57%
    22:00 +20°C° 0,2 mm 1 m/s 722 mmHg 60%
    23:00 +19°C° 0,2 mm 1 m/s 722 mmHg 63%
    Arată mai mult